Location: Passo di Treia
(43.2833°N, 13.3333°E)
Time: 19:30:37
(UTC+00:00)

Meteor 1-10 Rocket - Pass Details

Date: 09 December 2019
Orbit: 837 x 909 km, 81.3° (Epoch: 24 January)

Event Time Altitude Azimuth Distance (km) Brightness Sun altitude
Rises 15:57:44 0° 180° (S) 3,372 7.7 -5.1°
Reaches altitude 10° 16:00:08 10° 178° (S) 2,442 7.0 -5.5°
Maximum altitude 16:05:36 67° 97° (E) 908 4.2 -6.4°
Drops below altitude 10° 16:11:10 10° 15° (NNE) 2,482 6.3 -7.3°
Sets 16:13:37 0° 13° (NNE) 3,431 7.0 -7.7°
